ROMMA est une association bénévole à but non lucratif. Votre soutien est indispensable : ADHERER à ROMMA ou FAIRE un DON

Voiron - (38, Isère)

Voironnais (300 m)   Longitude: 05° 35' E   Latitude: 45° 23' N Station partenaire n°109
 

Détail journalier du     <<     >>

Température Precipitation Humidité Pression Vent Dir Rafale Dir. rafale Ensol.
Heure (°C) (mm) (%) (hPa) (km/h) (km/h) (min)
01:00 6.807910172ONO5ONO0
02:00 6.108110182ONO3ONO0
03:00 5.408210182ONO5ONO0
04:00 4.708310181ONO3ONO0
05:00 4.3084101803ONO0
06:00 4.0085101903ONO0
07:00 4.308410202ONO5ONO0
08:00 5.108210202ENE5ESE0
09:00 6.307810211ENE6SE0
10:00 8.206910232SE6NO0
11:00 9.206610231SSO5SSO0
12:00 10.206710232S8SSO0
13:00 11.606110235S13S30
14:00 14.104910224NE10SO60
15:00 13.705010225NNE13N30
16:00 14.404910235O15O30
17:00 14.204910236SSO15SSO60
18:00 13.105210235SO16O60
19:00 12.205910242NO5NO0
20:00 10.406610251ONO5NO0
21:00 9.706810252ONO3ONO0
22:00 8.6073102603ONO0
23:00 7.7075102603ONO0
minuit 7.607610272ONO5ONO0

Graphique du 08-03-2019

 

Serveur OMMA